[[{"header":{"parameterUnit":"m.s-1","parameterCategory":1,"la1":30.2991,"la2":30.254,"lo1":-89.0895,"lo2":-89.0444,"dy":0.0017,"dx":0.0017,"nx":28,"ny":28,"refTime":"2023-08-02T21:00:00:Z","depth":0,"parameterNumber":2,"parameterNumberName":"U-component_of_WINDS"},"data":[0,0,0,0,0,0,0,0,0,0,0,0,0,0,0,0,0,0,0,0,0,0,0,0,0,0,0,0,0,0,0,0,0,0,0,0,0,0,0,0,0,0,0,0,0,0,0,0,0,0,0,0,0,0,0,0,0,0,5.5548,5.555,0,5.5734,5.5736,5.5738,5.5682,5.5678,5.5674,5.567,5.5862,5.587,5.5879,0,0,0,0,0,0,0,0,0,0,0,0,0,5.5145,5.5152,5.5548,5.555,5.5553,5.5733,5.5736,5.5738,5.5682,5.5677,5.5673,5.5668,5.5859,5.5869,5.588,0,0,0,0,0,0,0,0,0,0,0,0,0,5.5324,5.5155,5.5548,5.5546,5.5548,5.5733,5.5736,5.5739,5.5683,5.5677,5.5671,5.5666,5.5856,5.5868,5.5881,5.6079,0,0,5.5921,5.5927,0,0,0,0,0,0,0,0,5.5314,5.5339,5.5544,5.5547,5.5549,5.5678,5.5664,5.5853,5.5685,5.5632,5.567,5.5663,5.5806,5.5822,5.587,5.6088,5.6096,5.5922,5.593,5.5936,5.594,0,0,0,0,0,0,0,5.5302,5.5331,5.5621,5.5547,5.555,5.5536,5.5555,5.57,5.5749,5.5636,5.5632,5.5655,5.5806,5.5858,5.5874,5.6099,5.5922,5.5934,5.5942,5.5947,5.6485,5.6491,0,0,0,0,0,0,5.5287,5.5321,5.5616,5.5627,5.5415,5.5548,5.557,5.5643,5.5748,5.5758,5.566,5.5652,5.5838,5.5859,5.5881,5.6117,5.5936,5.5948,5.5956,5.6479,5.6487,5.6494,0,0,0,0,0,0,5.5279,5.5314,5.5608,5.5473,5.5509,5.5562,5.5644,5.565,5.5701,5.5766,5.5774,5.5704,5.5834,5.5862,5.6029,5.6123,5.5954,5.5966,5.6471,5.6481,5.649,5.6592,0,0,0,0,0,0,5.5268,5.5312,5.5388,5.5475,5.5517,5.5754,5.565,5.5657,5.5724,5.5715,5.5809,5.5819,5.5832,5.601,5.6042,5.6138,5.5976,5.6463,5.6476,5.6487,5.6581,5.6604,5.6624,0,0,0,0,0,5.5253,5.541,5.5392,5.5428,5.5613,5.576,5.5783,5.5795,5.5732,5.5808,5.5849,5.5816,5.6108,5.6028,5.6064,5.6164,5.6457,5.6472,5.6486,5.6571,5.66,5.6624,0,0,0,0,0,0,5.5333,5.5422,5.5402,5.5592,5.5668,5.575,5.5846,5.5825,5.5922,5.5909,5.592,5.5942,5.6112,5.6155,5.6064,5.636,5.6273,5.6296,5.6325,5.6353,5.6375,5.636,5.5987,0,0,0,0,0,5.5373,5.5485,5.5556,5.5716,5.5755,5.5794,5.5859,5.5861,5.5941,5.5973,5.6026,5.6106,5.6214,5.6286,5.6391,5.6587,5.6605,5.6674,5.6696,5.6713,5.6732,5.6836,5.6867,5.6541,5.6541,5.6541,0,0,5.5456,5.5518,5.5588,5.5733,5.5793,5.5908,5.5822,5.5948,5.6033,5.5992,5.6152,5.6194,5.6283,5.6465,5.6548,5.6506,5.6826,5.6732,5.6745,5.6755,5.6855,5.6885,5.6913,5.6551,5.6549,5.6548,0,0,5.5665,5.5724,5.5863,5.5924,5.6015,5.6039,5.6073,5.6157,5.6183,5.6344,5.6314,5.6416,5.6605,5.6668,5.6725,5.6957,5.6929,5.6991,5.7104,5.7205,5.7231,5.7254,5.7334,5.7363,5.7009,5.701,5.701,0,5.5757,5.5929,5.5937,5.6065,5.6129,5.6096,5.6236,5.6295,5.6416,5.646,5.6412,5.6646,5.6704,5.6898,5.6954,5.7003,5.704,5.6979,5.7227,5.725,5.7271,5.7348,5.7378,5.7016,5.7016,5.7015,5.7014,0,5.6036,5.6156,5.6257,5.6372,5.6448,5.6582,5.6609,5.6685,5.6679,5.6709,5.6872,5.694,5.7056,5.7102,5.71,5.7297,5.7268,5.7223,5.7136,5.7308,5.738,5.741,5.7026,5.7023,5.7021,5.702,0,0,5.6302,5.6419,5.6456,5.6506,5.6603,5.6696,5.6827,5.6939,5.7003,5.7087,5.7196,5.7355,5.7314,5.7378,5.7382,5.7472,5.7647,5.7416,5.7418,5.7455,5.7866,5.7897,5.7931,5.763,5.7636,5.764,5.7857,0,5.6518,5.6748,5.6758,5.6967,5.7076,5.7046,5.7159,5.7231,5.7262,5.7358,5.7393,5.7504,5.7442,5.7481,5.7568,5.7608,5.773,5.7592,5.773,5.7735,5.7707,5.7969,5.8004,5.8205,5.7886,5.7891,5.7894,0,5.6802,5.6892,5.7112,5.719,5.7236,5.7339,5.7441,5.7534,5.7614,5.763,5.7701,5.7691,5.7824,5.7733,5.7916,5.7822,5.7879,5.7907,5.7915,5.7927,5.7824,5.7986,5.827,5.83,5.7939,5.7936,5.7932,0,5.6971,5.7148,5.7301,5.7346,5.7442,5.7514,5.7558,5.7632,5.7698,5.7787,5.783,5.7935,5.7992,5.8073,5.8091,5.8023,5.8273,5.8184,5.8288,5.8288,5.8341,5.8338,5.8636,5.8382,5.8381,5.8381,5.838,0,5.721,5.7345,5.7378,5.7473,5.7622,5.7632,5.778,5.7818,5.7884,5.7984,5.7965,5.806,5.8079,5.8177,5.8193,5.834,5.8367,5.8382,5.8384,5.8383,5.8381,5.842,5.8405,5.8389,5.8387,5.8385,5.8384,0,5.7424,5.7452,5.7617,5.7693,5.7716,5.7822,5.7888,5.7978,5.8005,5.8132,5.8163,5.8207,5.8321,5.8348,5.8485,5.8495,5.8669,5.8658,5.8641,5.864,5.8742,5.8731,5.9075,5.912,5.8838,5.884,5.8843,0,5.7574,5.7677,5.7764,5.7829,5.7875,5.7982,5.8048,5.8062,5.8132,5.8229,5.8307,5.8419,5.8509,5.8694,5.8737,5.8841,5.8832,5.8945,5.8848,5.8842,5.8831,5.8824,5.8833,5.8964,5.8967,5.8969,5.8971,0,5.7837,5.7845,5.7942,5.8043,5.8122,5.8203,5.828,5.8334,5.8358,5.8438,5.8554,5.8624,5.8762,5.8873,5.8977,5.9021,5.9,5.9001,5.9031,5.9029,5.9014,5.9021,5.869,5.8993,5.8991,5.8989,5.8988,5.8987,5.8023,5.8111,5.8185,5.8293,5.8351,5.8423,5.851,5.8548,5.8644,5.8757,5.876,5.8886,5.896,5.9097,5.9148,5.9246,5.9211,5.9254,5.9265,5.9275,5.9283,5.9,5.9266,5.9265,5.9264,5.9264,5.9264,0,5.8282,5.8328,5.8427,5.8533,5.8617,5.8589,5.8672,5.8744,5.8855,5.8926,5.9014,5.9147,5.9254,5.9305,5.9411,5.9479,5.9472,5.9506,5.9501,5.951,5.9309,5.9272,5.951,5.951,5.951,5.951,5.951,5.951,5.8427,5.8575,5.8591,5.8767,5.8812,5.8934,5.8983,5.9049,5.9105,5.9253,5.9341,5.9374,5.9437,5.9546,5.9642,5.9654,5.9693,5.9732,5.9739,5.955,5.9525,5.9501,5.9466,5.9741,5.9741,5.9932,5.9934,5.9935]},{"header":{"parameterUnit":"m.s-1","parameterCategory":1,"la1":30.2991,"la2":30.254,"lo1":-89.0895,"lo2":-89.0444,"dy":0.0017,"dx":0.0017,"nx":28,"ny":28,"refTime":"2023-08-02T21:00:00:Z","depth":0,"parameterNumber":3,"parameterNumberName":"V-component_of_WINDS"},"data":[0,0,0,0,0,0,0,0,0,0,0,0,0,0,0,0,0,0,0,0,0,0,0,0,0,0,0,0,0,0,0,0,0,0,0,0,0,0,0,0,0,0,0,0,0,0,0,0,0,0,0,0,0,0,0,0,0,0,1.2501,1.2502,0,1.2559,1.256,1.2561,1.2545,1.2543,1.2542,1.2541,1.2601,1.2604,1.2606,0,0,0,0,0,0,0,0,0,0,0,0,0,1.2374,1.2376,1.2501,1.2502,1.2502,1.2559,1.256,1.2561,1.2545,1.2543,1.2542,1.2541,1.26,1.2603,1.2607,0,0,0,0,0,0,0,0,0,0,0,0,0,1.2431,1.2377,1.2501,1.2501,1.2502,1.2559,1.256,1.2561,1.2545,1.2543,1.2542,1.254,1.2599,1.2603,1.2607,1.2668,0,0,1.262,1.2621,0,0,0,0,0,0,0,0,1.2427,1.2435,1.25,1.2501,1.2502,1.2543,1.2537,1.2597,1.2546,1.2529,1.2541,1.2539,1.2583,1.2588,1.2603,1.2671,1.2673,1.262,1.2622,1.2624,1.2625,0,0,0,0,0,0,0,1.2423,1.2433,1.2524,1.2501,1.2502,1.2498,1.2504,1.2549,1.2565,1.253,1.2529,1.2536,1.2583,1.26,1.2605,1.2674,1.262,1.2623,1.2626,1.2627,1.2793,1.2794,0,0,0,0,0,0,1.2419,1.2429,1.2522,1.2526,1.246,1.2502,1.2509,1.2532,1.2565,1.2568,1.2538,1.2535,1.2593,1.26,1.2607,1.2679,1.2624,1.2628,1.263,1.2791,1.2793,1.2795,0,0,0,0,0,0,1.2416,1.2427,1.252,1.2477,1.2489,1.2506,1.2532,1.2534,1.255,1.257,1.2573,1.2551,1.2592,1.2601,1.2652,1.2681,1.263,1.2633,1.2788,1.2791,1.2794,1.2826,0,0,0,0,0,0,1.2413,1.2427,1.245,1.2478,1.2491,1.2565,1.2534,1.2536,1.2557,1.2554,1.2584,1.2587,1.2592,1.2646,1.2656,1.2686,1.2637,1.2786,1.279,1.2793,1.2822,1.2829,1.2835,0,0,0,0,0,1.2408,1.2457,1.2452,1.2463,1.2521,1.2567,1.2574,1.2579,1.2559,1.2583,1.2596,1.2586,1.2676,1.2652,1.2663,1.2694,1.2784,1.2789,1.2793,1.2819,1.2828,1.2835,0,0,0,0,0,0,1.2433,1.2461,1.2455,1.2514,1.2538,1.2564,1.2594,1.2588,1.2618,1.2614,1.2618,1.2625,1.2677,1.2691,1.2663,1.2754,1.2727,1.2734,1.2743,1.2752,1.2758,1.2754,1.264,0,0,0,0,0,1.2445,1.248,1.2502,1.2552,1.2565,1.2577,1.2597,1.2598,1.2623,1.2634,1.265,1.2675,1.2708,1.2731,1.2763,1.2823,1.2829,1.285,1.2857,1.2862,1.2868,1.29,1.291,1.281,1.2809,1.2809,0,0,1.2471,1.249,1.2512,1.2558,1.2577,1.2612,1.2586,1.2625,1.2652,1.264,1.2689,1.2702,1.2729,1.2785,1.2811,1.2798,1.2897,1.2868,1.2872,1.2875,1.2906,1.2915,1.2924,1.2812,1.2812,1.2811,0,0,1.2536,1.2554,1.2598,1.2617,1.2645,1.2653,1.2663,1.269,1.2698,1.2747,1.2739,1.277,1.2828,1.2848,1.2865,1.2936,1.2928,1.2946,1.2981,1.3013,1.3021,1.3028,1.3053,1.3062,1.2952,1.2952,1.2952,0,1.2565,1.2618,1.2621,1.2661,1.2681,1.267,1.2714,1.2732,1.277,1.2784,1.2769,1.2841,1.2858,1.2919,1.2936,1.295,1.2962,1.2944,1.3019,1.3026,1.3033,1.3057,1.3066,1.2954,1.2954,1.2954,1.2954,0,1.2652,1.2689,1.2721,1.2757,1.278,1.2822,1.283,1.2853,1.2852,1.2861,1.2911,1.2931,1.2967,1.2981,1.298,1.3041,1.3032,1.3018,1.2992,1.3044,1.3067,1.3076,1.2957,1.2956,1.2956,1.2955,0,0,1.2736,1.2772,1.2783,1.2799,1.2829,1.2858,1.2898,1.2933,1.2952,1.2978,1.3012,1.306,1.3047,1.3067,1.3068,1.3095,1.3149,1.3078,1.3078,1.309,1.3217,1.3227,1.3238,1.3144,1.3145,1.3147,1.3214,0,1.2804,1.2875,1.2878,1.2943,1.2977,1.2967,1.3002,1.3024,1.3033,1.3063,1.3072,1.3107,1.3087,1.3099,1.3125,1.3137,1.3175,1.3132,1.3175,1.3176,1.3169,1.325,1.3262,1.3325,1.3223,1.3225,1.3226,0,1.2893,1.2921,1.299,1.3013,1.3028,1.306,1.3091,1.312,1.3143,1.3148,1.3169,1.3166,1.3206,1.3178,1.3233,1.3204,1.3221,1.323,1.3232,1.3237,1.3205,1.3257,1.3345,1.3354,1.324,1.3239,1.3238,0,1.2948,1.3002,1.305,1.3064,1.3093,1.3115,1.3128,1.315,1.317,1.3198,1.3211,1.3242,1.3259,1.3284,1.3288,1.3267,1.3344,1.3316,1.3348,1.3348,1.3366,1.3365,1.3458,1.3376,1.3376,1.3376,1.3376,0,1.3024,1.3066,1.3075,1.3104,1.3151,1.3153,1.3199,1.321,1.323,1.3261,1.3253,1.3283,1.3287,1.3317,1.332,1.3365,1.3373,1.3378,1.3378,1.3379,1.3378,1.3391,1.3387,1.3379,1.3378,1.3377,1.3377,0,1.3093,1.3101,1.3152,1.3175,1.3181,1.3215,1.3234,1.3262,1.3269,1.3308,1.3318,1.333,1.3364,1.3371,1.3412,1.3414,1.3468,1.3464,1.346,1.346,1.3493,1.349,1.3598,1.3612,1.352,1.3521,1.3522,0,1.3141,1.3173,1.3199,1.3219,1.3233,1.3266,1.3286,1.3289,1.331,1.3339,1.3363,1.3397,1.3425,1.348,1.3492,1.3523,1.352,1.3556,1.3525,1.3524,1.3521,1.3519,1.3522,1.3562,1.3563,1.3564,1.3565,0,1.3226,1.3228,1.3258,1.3289,1.3313,1.3337,1.3361,1.3377,1.3383,1.3407,1.3442,1.3463,1.3505,1.3538,1.3569,1.3582,1.3574,1.3574,1.3583,1.3584,1.3581,1.3583,1.3477,1.3572,1.3571,1.3571,1.357,1.357,1.3287,1.3314,1.3337,1.337,1.3387,1.3408,1.3435,1.3446,1.3475,1.3509,1.3509,1.3547,1.3569,1.3609,1.3624,1.3653,1.3642,1.3656,1.3659,1.3662,1.3665,1.3575,1.3659,1.3659,1.3659,1.3658,1.3658,0,1.3371,1.3384,1.3415,1.3447,1.3473,1.3463,1.3487,1.3509,1.3543,1.3564,1.3591,1.3631,1.3663,1.3677,1.3708,1.3729,1.3726,1.3737,1.3736,1.3739,1.3674,1.3663,1.3739,1.3739,1.3739,1.3739,1.3739,1.3739,1.3418,1.3464,1.3469,1.3523,1.3536,1.3574,1.3589,1.3608,1.3624,1.3669,1.3696,1.3705,1.3722,1.3755,1.3783,1.3786,1.3798,1.3811,1.3812,1.3752,1.3744,1.3736,1.3725,1.3813,1.3813,1.3875,1.3875,1.3876]}]]